Year,Month,Day,Hour,Minute,Value (Times are PST for temperature in C)
2007,07,11,00,00,21.80
2007,07,11,00,01,21.80
2007,07,11,00,02,21.80
2007,07,11,00,03,21.80
2007,07,11,00,04,21.80
2007,07,11,00,05,21.80
2007,07,11,00,06,21.80
2007,07,11,00,07,21.80
2007,07,11,00,08,21.80
2007,07,11,00,09,21.80
2007,07,11,00,10,21.80
2007,07,11,00,11,21.80
2007,07,11,00,12,21.70
2007,07,11,00,13,21.80
2007,07,11,00,14,21.80
2007,07,11,00,15,21.80
2007,07,11,00,16,21.80
2007,07,11,00,17,21.80
2007,07,11,00,18,21.70
2007,07,11,00,19,21.70
2007,07,11,00,20,21.70
2007,07,11,00,21,21.60
2007,07,11,00,22,21.60
2007,07,11,00,23,21.60
2007,07,11,00,24,21.60
2007,07,11,00,25,21.50
2007,07,11,00,26,21.50
2007,07,11,00,27,21.50
2007,07,11,00,28,21.50
2007,07,11,00,29,21.40
2007,07,11,00,30,21.40
2007,07,11,00,31,21.40
2007,07,11,00,32,21.30
2007,07,11,00,33,21.30
2007,07,11,00,34,21.30
2007,07,11,00,35,21.20
2007,07,11,00,36,21.10
2007,07,11,00,37,21.00
2007,07,11,00,38,21.00
2007,07,11,00,39,20.90
2007,07,11,00,40,20.90
2007,07,11,00,41,20.90
2007,07,11,00,42,20.90
2007,07,11,00,43,20.90
2007,07,11,00,44,20.90
2007,07,11,00,45,20.80
2007,07,11,00,46,20.80
2007,07,11,00,47,20.80
2007,07,11,00,48,20.80
2007,07,11,00,49,20.80
2007,07,11,00,50,20.80
2007,07,11,00,51,20.70
2007,07,11,00,52,20.70
2007,07,11,00,53,20.70
2007,07,11,00,54,20.70
2007,07,11,00,55,20.70
2007,07,11,00,56,20.60
2007,07,11,00,57,20.60
2007,07,11,00,58,20.60
2007,07,11,00,59,20.60
2007,07,11,01,00,20.60
2007,07,11,01,01,20.60
2007,07,11,01,02,20.60
2007,07,11,01,03,20.60
2007,07,11,01,04,20.60
2007,07,11,01,05,20.60
2007,07,11,01,06,20.60
2007,07,11,01,07,20.60
2007,07,11,01,08,20.60
2007,07,11,01,09,20.50
2007,07,11,01,10,20.60
2007,07,11,01,11,20.60
2007,07,11,01,12,20.60
2007,07,11,01,13,20.50
2007,07,11,01,14,20.50
2007,07,11,01,15,20.50
2007,07,11,01,16,20.40
2007,07,11,01,17,20.40
2007,07,11,01,18,20.40
2007,07,11,01,19,20.40
2007,07,11,01,20,20.40
2007,07,11,01,21,20.40
2007,07,11,01,22,20.40
2007,07,11,01,23,20.30
2007,07,11,01,24,20.30
2007,07,11,01,25,20.30
2007,07,11,01,26,20.30
2007,07,11,01,27,20.30
2007,07,11,01,28,20.20
2007,07,11,01,29,20.20
2007,07,11,01,30,20.20
2007,07,11,01,31,20.20
2007,07,11,01,32,20.20
2007,07,11,01,33,20.20
2007,07,11,01,34,20.10
2007,07,11,01,35,20.10
2007,07,11,01,36,20.10
2007,07,11,01,37,20.10
2007,07,11,01,38,20.10
2007,07,11,01,39,20.10
2007,07,11,01,40,20.10
2007,07,11,01,41,20.10
2007,07,11,01,42,20.10
2007,07,11,01,43,20.00
2007,07,11,01,44,20.10
2007,07,11,01,45,20.10
2007,07,11,01,46,20.10
2007,07,11,01,47,20.00
2007,07,11,01,48,20.00
2007,07,11,01,49,20.00
2007,07,11,01,50,20.10
2007,07,11,01,51,20.00
2007,07,11,01,52,20.00
2007,07,11,01,53,20.00
2007,07,11,01,54,20.00
2007,07,11,01,55,20.00
2007,07,11,01,56,19.90
2007,07,11,01,57,19.90
2007,07,11,01,58,19.90
2007,07,11,01,59,19.90
2007,07,11,02,00,19.90
2007,07,11,02,01,19.80
2007,07,11,02,02,19.80
2007,07,11,02,03,19.80
2007,07,11,02,04,19.80
2007,07,11,02,05,19.80
2007,07,11,02,06,19.80
2007,07,11,02,07,19.70
2007,07,11,02,08,19.70
2007,07,11,02,09,19.60
2007,07,11,02,10,19.60
2007,07,11,02,11,19.60
2007,07,11,02,12,19.60
2007,07,11,02,13,19.50
2007,07,11,02,14,19.50
2007,07,11,02,15,19.50
2007,07,11,02,16,19.50
2007,07,11,02,17,19.40
2007,07,11,02,18,19.40
2007,07,11,02,19,19.40
2007,07,11,02,20,19.40
2007,07,11,02,21,19.40
2007,07,11,02,22,19.30
2007,07,11,02,23,19.30
2007,07,11,02,24,19.20
2007,07,11,02,25,19.10
2007,07,11,02,26,19.10
2007,07,11,02,27,19.00
2007,07,11,02,28,18.90
2007,07,11,02,29,18.90
2007,07,11,02,30,18.90
2007,07,11,02,31,18.90
2007,07,11,02,32,18.90
2007,07,11,02,33,18.80
2007,07,11,02,34,18.80
2007,07,11,02,35,18.80
2007,07,11,02,36,18.80
2007,07,11,02,37,18.70
2007,07,11,02,38,18.70
2007,07,11,02,39,18.70
2007,07,11,02,40,18.60
2007,07,11,02,41,18.60
2007,07,11,02,42,18.60
2007,07,11,02,43,18.60
2007,07,11,02,44,18.60
2007,07,11,02,45,18.60
2007,07,11,02,46,18.60
2007,07,11,02,47,18.60
2007,07,11,02,48,18.60
2007,07,11,02,49,18.60
2007,07,11,02,50,18.60
2007,07,11,02,51,18.60
2007,07,11,02,52,18.60
2007,07,11,02,53,18.60
2007,07,11,02,54,18.60
2007,07,11,02,55,18.60
2007,07,11,02,56,18.60
2007,07,11,02,57,18.60
2007,07,11,02,58,18.60
2007,07,11,02,59,18.60
2007,07,11,03,00,18.60
2007,07,11,03,01,18.60
2007,07,11,03,02,18.60
2007,07,11,03,03,18.60
2007,07,11,03,04,18.60
2007,07,11,03,05,18.50
2007,07,11,03,06,18.50
2007,07,11,03,07,18.50
2007,07,11,03,08,18.50
2007,07,11,03,09,18.50
2007,07,11,03,10,18.50
2007,07,11,03,11,18.50
2007,07,11,03,12,18.50
2007,07,11,03,13,18.50
2007,07,11,03,14,18.40
2007,07,11,03,15,18.40
2007,07,11,03,16,18.40
2007,07,11,03,17,18.40
2007,07,11,03,18,18.40
2007,07,11,03,19,18.40
2007,07,11,03,20,18.40
2007,07,11,03,21,18.40
2007,07,11,03,22,18.40
2007,07,11,03,23,18.40
2007,07,11,03,24,18.40
2007,07,11,03,25,18.40
2007,07,11,03,26,18.40
2007,07,11,03,27,18.40
2007,07,11,03,28,18.40
2007,07,11,03,29,18.40
2007,07,11,03,30,18.40
2007,07,11,03,31,18.40
2007,07,11,03,32,18.40
2007,07,11,03,33,18.40
2007,07,11,03,34,18.40
2007,07,11,03,35,18.30
2007,07,11,03,36,18.30
2007,07,11,03,37,18.30
2007,07,11,03,38,18.30
2007,07,11,03,39,18.30
2007,07,11,03,40,18.30
2007,07,11,03,41,18.20
2007,07,11,03,42,18.20
2007,07,11,03,43,18.20
2007,07,11,03,44,18.20
2007,07,11,03,45,18.20
2007,07,11,03,46,18.20
2007,07,11,03,47,18.20
2007,07,11,03,48,18.10
2007,07,11,03,49,18.10
2007,07,11,03,50,18.10
2007,07,11,03,51,18.10
2007,07,11,03,52,18.00
2007,07,11,03,53,18.00
2007,07,11,03,54,18.00
2007,07,11,03,55,17.90
2007,07,11,03,56,17.90
2007,07,11,03,57,17.90
2007,07,11,03,58,17.90
2007,07,11,03,59,17.90
2007,07,11,04,00,17.90
2007,07,11,04,01,17.90
2007,07,11,04,02,17.90
2007,07,11,04,03,17.90
2007,07,11,04,04,17.90
2007,07,11,04,05,17.90
2007,07,11,04,06,17.90
2007,07,11,04,07,17.90
2007,07,11,04,08,17.80
2007,07,11,04,09,17.80
2007,07,11,04,10,17.80
2007,07,11,04,11,17.70
2007,07,11,04,12,17.70
2007,07,11,04,13,17.70
2007,07,11,04,14,17.60
2007,07,11,04,15,17.60
2007,07,11,04,16,17.60
2007,07,11,04,17,17.60
2007,07,11,04,18,17.60
2007,07,11,04,19,17.60
2007,07,11,04,20,17.60
2007,07,11,04,21,17.60
2007,07,11,04,22,17.60
2007,07,11,04,23,17.60
2007,07,11,04,24,17.60
2007,07,11,04,25,17.60
2007,07,11,04,26,17.60
2007,07,11,04,27,17.50
2007,07,11,04,28,17.50
2007,07,11,04,29,17.50
2007,07,11,04,30,17.50
2007,07,11,04,31,17.40
2007,07,11,04,32,17.50
2007,07,11,04,33,17.50
2007,07,11,04,34,17.60
2007,07,11,04,35,17.60
2007,07,11,04,36,17.60
2007,07,11,04,37,17.50
2007,07,11,04,38,17.50
2007,07,11,04,39,17.50
2007,07,11,04,40,17.50
2007,07,11,04,41,17.50
2007,07,11,04,42,17.50
2007,07,11,04,43,17.50
2007,07,11,04,44,17.50
2007,07,11,04,45,17.50
2007,07,11,04,46,17.50
2007,07,11,04,47,17.40
2007,07,11,04,48,17.40
2007,07,11,04,49,17.40
2007,07,11,04,50,17.40
2007,07,11,04,51,17.40
2007,07,11,04,52,17.40
2007,07,11,04,53,17.30
2007,07,11,04,54,17.30
2007,07,11,04,55,17.30
2007,07,11,04,56,17.30
2007,07,11,04,57,17.30
2007,07,11,04,58,17.20
2007,07,11,04,59,17.20
2007,07,11,05,00,17.20
2007,07,11,05,01,17.20
2007,07,11,05,02,17.20
2007,07,11,05,03,17.20
2007,07,11,05,04,17.20
2007,07,11,05,05,17.20
2007,07,11,05,06,17.20
2007,07,11,05,07,17.20
2007,07,11,05,08,17.20
2007,07,11,05,09,17.20
2007,07,11,05,10,17.20
2007,07,11,05,11,17.20
2007,07,11,05,12,17.20
2007,07,11,05,13,17.20
2007,07,11,05,14,17.20
2007,07,11,05,15,17.20
2007,07,11,05,16,17.20
2007,07,11,05,17,17.20
2007,07,11,05,18,17.20
2007,07,11,05,19,17.20
2007,07,11,05,20,17.20
2007,07,11,05,21,17.20
2007,07,11,05,22,17.20
2007,07,11,05,23,17.20
2007,07,11,05,24,17.20
2007,07,11,05,25,17.20
2007,07,11,05,26,17.20
2007,07,11,05,27,17.20
2007,07,11,05,28,17.20
2007,07,11,05,29,17.20
2007,07,11,05,30,17.20
2007,07,11,05,31,17.20
2007,07,11,05,32,17.20
2007,07,11,05,33,17.20
2007,07,11,05,34,17.20
2007,07,11,05,35,17.20
2007,07,11,05,36,17.20
2007,07,11,05,37,17.20
2007,07,11,05,38,17.20
2007,07,11,05,39,17.20
2007,07,11,05,40,17.20
2007,07,11,05,41,17.20
2007,07,11,05,42,17.20
2007,07,11,05,43,17.30
2007,07,11,05,44,17.30
2007,07,11,05,45,17.30
2007,07,11,05,46,17.30
2007,07,11,05,47,17.30
2007,07,11,05,48,17.30
2007,07,11,05,49,17.30
2007,07,11,05,50,17.30
2007,07,11,05,51,17.30
2007,07,11,05,52,17.30
2007,07,11,05,53,17.30
2007,07,11,05,54,17.30
2007,07,11,05,55,17.30
2007,07,11,05,56,17.30
2007,07,11,05,57,17.30
2007,07,11,05,58,17.30
2007,07,11,05,59,17.20
2007,07,11,06,00,17.20
2007,07,11,06,01,17.20
2007,07,11,06,02,17.20
2007,07,11,06,03,17.20
2007,07,11,06,04,17.20
2007,07,11,06,05,17.30
2007,07,11,06,06,17.30
2007,07,11,06,07,17.30
2007,07,11,06,08,17.30
2007,07,11,06,09,17.30
2007,07,11,06,10,17.30
2007,07,11,06,11,17.40
2007,07,11,06,12,17.40
2007,07,11,06,13,17.50
2007,07,11,06,14,17.50
2007,07,11,06,15,17.60
2007,07,11,06,16,17.70
2007,07,11,06,17,17.70
2007,07,11,06,18,17.80
2007,07,11,06,19,17.80
2007,07,11,06,20,17.90
2007,07,11,06,21,17.90
2007,07,11,06,22,18.00
2007,07,11,06,23,18.10
2007,07,11,06,24,18.10
2007,07,11,06,25,18.20
2007,07,11,06,26,18.20
2007,07,11,06,27,18.30
2007,07,11,06,28,18.30
2007,07,11,06,29,18.40
2007,07,11,06,30,18.40
2007,07,11,06,31,18.50
2007,07,11,06,32,18.50
2007,07,11,06,33,18.60
2007,07,11,06,34,18.60
2007,07,11,06,35,18.60
2007,07,11,06,36,18.60
2007,07,11,06,37,18.70
2007,07,11,06,38,18.70
2007,07,11,06,39,18.70
2007,07,11,06,40,18.80
2007,07,11,06,41,18.80
2007,07,11,06,42,18.80
2007,07,11,06,43,18.90
2007,07,11,06,44,19.00
2007,07,11,06,45,19.00
2007,07,11,06,46,19.10
2007,07,11,06,47,19.20
2007,07,11,06,48,19.20
2007,07,11,06,49,19.30
2007,07,11,06,50,19.40
2007,07,11,06,51,19.40
2007,07,11,06,52,19.50
2007,07,11,06,53,19.60
2007,07,11,06,54,19.60
2007,07,11,06,55,19.70
2007,07,11,06,56,19.70
2007,07,11,06,57,19.80
2007,07,11,06,58,19.90
2007,07,11,06,59,20.00
2007,07,11,07,00,20.00
2007,07,11,07,01,20.10
2007,07,11,07,02,20.10
2007,07,11,07,03,20.20
2007,07,11,07,04,20.20
2007,07,11,07,05,20.30
2007,07,11,07,06,20.30
2007,07,11,07,07,20.40
2007,07,11,07,08,20.50
2007,07,11,07,09,20.60
2007,07,11,07,10,20.70
2007,07,11,07,11,20.70
2007,07,11,07,12,20.80
2007,07,11,07,13,20.90
2007,07,11,07,14,21.00
2007,07,11,07,15,21.10
2007,07,11,07,16,21.10
2007,07,11,07,17,21.20
2007,07,11,07,18,21.20
2007,07,11,07,19,21.30
2007,07,11,07,20,21.30
2007,07,11,07,21,21.30
2007,07,11,07,22,21.40
2007,07,11,07,23,21.40
2007,07,11,07,24,21.40
2007,07,11,07,25,21.50
2007,07,11,07,26,21.50
2007,07,11,07,27,21.50
2007,07,11,07,28,21.60
2007,07,11,07,29,21.60
2007,07,11,07,30,21.60
2007,07,11,07,31,21.70
2007,07,11,07,32,21.80
2007,07,11,07,33,21.80
2007,07,11,07,34,21.90
2007,07,11,07,35,22.00
2007,07,11,07,36,22.10
2007,07,11,07,37,22.30
2007,07,11,07,38,22.40
2007,07,11,07,39,22.50
2007,07,11,07,40,22.60
2007,07,11,07,41,22.70
2007,07,11,07,42,22.80
2007,07,11,07,43,22.90
2007,07,11,07,44,23.00
2007,07,11,07,45,23.10
2007,07,11,07,46,23.30
2007,07,11,07,47,23.30
2007,07,11,07,48,23.40
2007,07,11,07,49,23.50
2007,07,11,07,50,23.60
2007,07,11,07,51,23.70
2007,07,11,07,52,23.70
2007,07,11,07,53,23.80
2007,07,11,07,54,23.80
2007,07,11,07,55,23.80
2007,07,11,07,56,23.80
2007,07,11,07,57,23.70
2007,07,11,07,58,23.70
2007,07,11,07,59,23.70
2007,07,11,08,00,23.60
2007,07,11,08,01,23.60
2007,07,11,08,02,23.60
2007,07,11,08,03,23.50
2007,07,11,08,04,23.60
2007,07,11,08,05,23.60
2007,07,11,08,06,23.60
2007,07,11,08,07,23.60
2007,07,11,08,08,23.70
2007,07,11,08,09,23.70
2007,07,11,08,10,23.70
2007,07,11,08,11,23.80
2007,07,11,08,12,23.90
2007,07,11,08,13,24.00
2007,07,11,08,14,24.10
2007,07,11,08,15,24.10
2007,07,11,08,16,24.20
2007,07,11,08,17,24.30
2007,07,11,08,18,24.40
2007,07,11,08,19,24.40
2007,07,11,08,20,24.50
2007,07,11,08,21,24.60
2007,07,11,08,22,24.70
2007,07,11,08,23,24.80
2007,07,11,08,24,24.80
2007,07,11,08,25,24.90
2007,07,11,08,26,25.00
2007,07,11,08,27,25.10
2007,07,11,08,28,25.20
2007,07,11,08,29,25.30
2007,07,11,08,30,25.40
2007,07,11,08,31,25.50
2007,07,11,08,32,25.50
2007,07,11,08,33,25.50
2007,07,11,08,34,25.40
2007,07,11,08,35,25.30
2007,07,11,08,36,25.20
2007,07,11,08,37,25.00
2007,07,11,08,38,24.90
2007,07,11,08,39,24.90
2007,07,11,08,40,24.80
2007,07,11,08,41,24.70
2007,07,11,08,42,24.60
2007,07,11,08,43,24.60
2007,07,11,08,44,24.50
2007,07,11,08,45,24.50
2007,07,11,08,46,24.50
2007,07,11,08,47,24.60
2007,07,11,08,48,24.60
2007,07,11,08,49,24.70
2007,07,11,08,50,24.80
2007,07,11,08,51,24.90
2007,07,11,08,52,25.00
2007,07,11,08,53,25.10
2007,07,11,08,54,25.30
2007,07,11,08,55,25.40
2007,07,11,08,56,25.50
2007,07,11,08,57,25.70
2007,07,11,08,58,25.80
2007,07,11,08,59,25.90
2007,07,11,09,00,25.90
2007,07,11,09,01,26.00
2007,07,11,09,02,26.10
2007,07,11,09,03,26.20
2007,07,11,09,04,26.20
2007,07,11,09,05,26.20
2007,07,11,09,06,26.00
2007,07,11,09,07,25.80
2007,07,11,09,08,25.70
2007,07,11,09,09,25.60
2007,07,11,09,10,25.60
2007,07,11,09,11,25.60
2007,07,11,09,12,25.50
2007,07,11,09,13,25.40
2007,07,11,09,14,25.50
2007,07,11,09,15,25.50
2007,07,11,09,16,25.40
2007,07,11,09,17,25.30
2007,07,11,09,18,25.30
2007,07,11,09,19,25.20
2007,07,11,09,20,25.20
2007,07,11,09,21,25.20
2007,07,11,09,22,25.20
2007,07,11,09,23,25.30
2007,07,11,09,24,25.40
2007,07,11,09,25,25.50
2007,07,11,09,26,25.60
2007,07,11,09,27,25.80
2007,07,11,09,28,25.90
2007,07,11,09,29,26.10
2007,07,11,09,30,26.40
2007,07,11,09,31,26.70
2007,07,11,09,32,27.10
2007,07,11,09,33,27.50
2007,07,11,09,34,28.00
2007,07,11,09,35,28.40
2007,07,11,09,36,28.70
2007,07,11,09,37,28.90
2007,07,11,09,38,29.10
2007,07,11,09,39,29.30
2007,07,11,09,40,29.40
2007,07,11,09,41,29.50
2007,07,11,09,42,29.60
2007,07,11,09,43,29.60
2007,07,11,09,44,29.60
2007,07,11,09,45,29.60
2007,07,11,09,46,29.60
2007,07,11,09,47,29.50
2007,07,11,09,48,29.50
2007,07,11,09,49,29.60
2007,07,11,09,50,29.60
2007,07,11,09,51,29.70
2007,07,11,09,52,29.80
2007,07,11,09,53,29.80
2007,07,11,09,54,29.80
2007,07,11,09,55,29.80
2007,07,11,09,56,29.90
2007,07,11,09,57,29.90
2007,07,11,09,58,29.90
2007,07,11,09,59,29.80
2007,07,11,10,00,29.80
2007,07,11,10,01,29.80
2007,07,11,10,02,29.80
2007,07,11,10,03,29.90
2007,07,11,10,04,30.00
2007,07,11,10,05,30.10
2007,07,11,10,06,30.10
2007,07,11,10,07,30.10
2007,07,11,10,08,30.10
2007,07,11,10,09,30.10
2007,07,11,10,10,30.10
2007,07,11,10,11,30.10
2007,07,11,10,12,30.10
2007,07,11,10,13,30.10
2007,07,11,10,14,30.10
2007,07,11,10,15,30.10
2007,07,11,10,16,30.20
2007,07,11,10,17,30.30
2007,07,11,10,18,30.20
2007,07,11,10,19,30.30
2007,07,11,10,20,30.30
2007,07,11,10,21,30.40
2007,07,11,10,22,30.40
2007,07,11,10,23,30.40
2007,07,11,10,24,30.30
2007,07,11,10,25,30.30
2007,07,11,10,26,30.30
2007,07,11,10,27,30.40
2007,07,11,10,28,30.50
2007,07,11,10,29,30.60
2007,07,11,10,30,30.50
2007,07,11,10,31,30.40
2007,07,11,10,32,30.40
2007,07,11,10,33,30.40
2007,07,11,10,34,30.40
2007,07,11,10,35,30.30
2007,07,11,10,36,30.30
2007,07,11,10,37,30.20
2007,07,11,10,38,30.30
2007,07,11,10,39,30.30
2007,07,11,10,40,30.40
2007,07,11,10,41,30.40
2007,07,11,10,42,30.40
2007,07,11,10,43,30.30
2007,07,11,10,44,30.30
2007,07,11,10,45,30.30
2007,07,11,10,46,30.30
2007,07,11,10,47,30.20
2007,07,11,10,48,30.30
2007,07,11,10,49,30.40
2007,07,11,10,50,30.60
2007,07,11,10,51,30.60
2007,07,11,10,52,30.70
2007,07,11,10,53,30.70
2007,07,11,10,54,30.80
2007,07,11,10,55,30.80
2007,07,11,10,56,30.90
2007,07,11,10,57,31.00
2007,07,11,10,58,31.00
2007,07,11,10,59,31.00
2007,07,11,11,00,31.00
2007,07,11,11,01,31.00
2007,07,11,11,02,31.00
2007,07,11,11,03,31.10
2007,07,11,11,04,31.20
2007,07,11,11,05,31.20
2007,07,11,11,06,31.10
2007,07,11,11,07,31.00
2007,07,11,11,08,31.00
2007,07,11,11,09,31.10
2007,07,11,11,10,31.20
2007,07,11,11,11,31.20
2007,07,11,11,12,31.30
2007,07,11,11,13,31.30
2007,07,11,11,14,31.30
2007,07,11,11,15,31.30
2007,07,11,11,16,31.30
2007,07,11,11,17,31.40
2007,07,11,11,18,31.40
2007,07,11,11,19,31.30
2007,07,11,11,20,31.30
2007,07,11,11,21,31.40
2007,07,11,11,22,31.40
2007,07,11,11,23,31.50
2007,07,11,11,24,31.60
2007,07,11,11,25,31.70
2007,07,11,11,26,31.70
2007,07,11,11,27,31.70
2007,07,11,11,28,31.70
2007,07,11,11,29,31.70
2007,07,11,11,30,31.60
2007,07,11,11,31,31.50
2007,07,11,11,32,31.50
2007,07,11,11,33,31.60
2007,07,11,11,34,31.60
2007,07,11,11,35,31.60
2007,07,11,11,36,31.70
2007,07,11,11,37,31.80
2007,07,11,11,38,31.80
2007,07,11,11,39,31.80
2007,07,11,11,40,31.80
2007,07,11,11,41,31.90
2007,07,11,11,42,31.90
2007,07,11,11,43,31.90
2007,07,11,11,44,31.90
2007,07,11,11,45,31.90
2007,07,11,11,46,31.80
2007,07,11,11,47,31.80
2007,07,11,11,48,31.80
2007,07,11,11,49,31.80
2007,07,11,11,50,31.90
2007,07,11,11,51,32.00
2007,07,11,11,52,32.00
2007,07,11,11,53,32.00
2007,07,11,11,54,31.90
2007,07,11,11,55,31.90
2007,07,11,11,56,31.90
2007,07,11,11,57,31.90
2007,07,11,11,58,31.90
2007,07,11,11,59,31.90
2007,07,11,12,00,32.00
2007,07,11,12,01,32.10
2007,07,11,12,02,32.20
2007,07,11,12,03,32.30
2007,07,11,12,04,32.30
2007,07,11,12,05,32.30
2007,07,11,12,06,32.20
2007,07,11,12,07,32.10
2007,07,11,12,08,32.10
2007,07,11,12,09,32.20
2007,07,11,12,10,32.30
2007,07,11,12,11,32.20
2007,07,11,12,12,32.00
2007,07,11,12,13,32.00
2007,07,11,12,14,32.00
2007,07,11,12,15,32.10
2007,07,11,12,16,32.10
2007,07,11,12,17,32.10
2007,07,11,12,18,32.10
2007,07,11,12,19,32.20
2007,07,11,12,20,32.30
2007,07,11,12,21,32.40
2007,07,11,12,22,32.50
2007,07,11,12,23,32.50
2007,07,11,12,24,32.50
2007,07,11,12,25,32.40
2007,07,11,12,26,32.50
2007,07,11,12,27,32.50
2007,07,11,12,28,32.40
2007,07,11,12,29,32.30
2007,07,11,12,30,32.30
2007,07,11,12,31,32.30
2007,07,11,12,32,32.20
2007,07,11,12,33,32.20
2007,07,11,12,34,32.30
2007,07,11,12,35,32.30
2007,07,11,12,36,32.40
2007,07,11,12,37,32.30
2007,07,11,12,38,32.30
2007,07,11,12,39,32.30
2007,07,11,12,40,32.30
2007,07,11,12,41,32.40
2007,07,11,12,42,32.50
2007,07,11,12,43,32.50
2007,07,11,12,44,32.50
2007,07,11,12,45,32.60
2007,07,11,12,46,32.80
2007,07,11,12,47,32.90
2007,07,11,12,48,32.90
2007,07,11,12,49,32.80
2007,07,11,12,50,32.90
2007,07,11,12,51,32.90
2007,07,11,12,52,33.00
2007,07,11,12,53,33.00
2007,07,11,12,54,33.00
2007,07,11,12,55,33.00
2007,07,11,12,56,33.00
2007,07,11,12,57,33.00
2007,07,11,12,58,33.10
2007,07,11,12,59,33.20
2007,07,11,13,00,33.20
2007,07,11,13,01,33.20
2007,07,11,13,02,33.10
2007,07,11,13,03,32.90
2007,07,11,13,04,32.90
2007,07,11,13,05,32.80
2007,07,11,13,06,32.90
2007,07,11,13,07,33.00
2007,07,11,13,08,33.10
2007,07,11,13,09,33.20
2007,07,11,13,10,33.20
2007,07,11,13,11,33.10
2007,07,11,13,12,33.20
2007,07,11,13,13,33.20
2007,07,11,13,14,33.20
2007,07,11,13,15,33.30
2007,07,11,13,16,33.40
2007,07,11,13,17,33.40
2007,07,11,13,18,33.40
2007,07,11,13,19,33.50
2007,07,11,13,20,33.50
2007,07,11,13,21,33.40
2007,07,11,13,22,33.40
2007,07,11,13,23,33.40
2007,07,11,13,24,33.30
2007,07,11,13,25,33.30
2007,07,11,13,26,33.20
2007,07,11,13,27,33.20
2007,07,11,13,28,33.20
2007,07,11,13,29,33.20
2007,07,11,13,30,33.20
2007,07,11,13,31,33.30
2007,07,11,13,32,33.40
2007,07,11,13,33,33.40
2007,07,11,13,34,33.50
2007,07,11,13,35,33.60
2007,07,11,13,36,33.60
2007,07,11,13,37,33.50
2007,07,11,13,38,33.50
2007,07,11,13,39,33.50
2007,07,11,13,40,33.60
2007,07,11,13,41,33.60
2007,07,11,13,42,33.60
2007,07,11,13,43,33.70
2007,07,11,13,44,33.70
2007,07,11,13,45,33.70
2007,07,11,13,46,33.80
2007,07,11,13,47,33.70
2007,07,11,13,48,33.60
2007,07,11,13,49,33.50
2007,07,11,13,50,33.60
2007,07,11,13,51,33.60
2007,07,11,13,52,33.70
2007,07,11,13,53,33.90
2007,07,11,13,54,33.90
2007,07,11,13,55,33.90
2007,07,11,13,56,33.90
2007,07,11,13,57,33.90
2007,07,11,13,58,34.00
2007,07,11,13,59,34.10
2007,07,11,14,00,34.10
2007,07,11,14,01,34.00
2007,07,11,14,02,33.80
2007,07,11,14,03,33.70
2007,07,11,14,04,33.70
2007,07,11,14,05,33.70
2007,07,11,14,06,33.80
2007,07,11,14,07,33.80
2007,07,11,14,08,33.80
2007,07,11,14,09,34.00
2007,07,11,14,10,34.10
2007,07,11,14,11,34.10
2007,07,11,14,12,34.30
2007,07,11,14,13,34.40
2007,07,11,14,14,34.60
2007,07,11,14,15,34.80
2007,07,11,14,16,34.90
2007,07,11,14,17,34.90
2007,07,11,14,18,34.90
2007,07,11,14,19,34.90
2007,07,11,14,20,35.00
2007,07,11,14,21,35.00
2007,07,11,14,22,35.20
2007,07,11,14,23,35.30
2007,07,11,14,24,35.40
2007,07,11,14,25,35.40
2007,07,11,14,26,35.20
2007,07,11,14,27,35.00
2007,07,11,14,28,34.90
2007,07,11,14,29,34.80
2007,07,11,14,30,34.70
2007,07,11,14,31,34.70
2007,07,11,14,32,34.60
2007,07,11,14,33,34.70
2007,07,11,14,34,34.80
2007,07,11,14,35,34.80
2007,07,11,14,36,34.90
2007,07,11,14,37,34.80
2007,07,11,14,38,34.80
2007,07,11,14,39,34.90
2007,07,11,14,40,35.00
2007,07,11,14,41,35.10
2007,07,11,14,42,35.00
2007,07,11,14,43,34.90
2007,07,11,14,44,34.90
2007,07,11,14,45,34.90
2007,07,11,14,46,34.90
2007,07,11,14,47,34.80
2007,07,11,14,48,34.80
2007,07,11,14,49,34.90
2007,07,11,14,50,35.00
2007,07,11,14,51,35.10
2007,07,11,14,52,35.00
2007,07,11,14,53,35.00
2007,07,11,14,54,35.10
2007,07,11,14,55,35.10
2007,07,11,14,56,35.20
2007,07,11,14,57,35.20
2007,07,11,14,58,35.20
2007,07,11,14,59,35.10
2007,07,11,15,00,35.10
2007,07,11,15,01,35.00
2007,07,11,15,02,35.00
2007,07,11,15,03,35.00
2007,07,11,15,04,34.90
2007,07,11,15,05,34.90
2007,07,11,15,06,35.00
2007,07,11,15,07,35.10
2007,07,11,15,08,35.10
2007,07,11,15,09,35.10
2007,07,11,15,10,35.00
2007,07,11,15,11,35.00
2007,07,11,15,12,35.00
2007,07,11,15,13,35.00
2007,07,11,15,14,35.10
2007,07,11,15,15,35.20
2007,07,11,15,16,35.30
2007,07,11,15,17,35.30
2007,07,11,15,18,35.50
2007,07,11,15,19,35.60
2007,07,11,15,20,35.50
2007,07,11,15,21,35.60
2007,07,11,15,22,35.50
2007,07,11,15,23,35.50
2007,07,11,15,24,35.60
2007,07,11,15,25,35.60
2007,07,11,15,26,35.70
2007,07,11,15,27,35.80
2007,07,11,15,28,35.80
2007,07,11,15,29,35.70
2007,07,11,15,30,35.70
2007,07,11,15,31,35.70
2007,07,11,15,32,35.70
2007,07,11,15,33,35.80
2007,07,11,15,34,35.70
2007,07,11,15,35,35.60
2007,07,11,15,36,35.50
2007,07,11,15,37,35.50
2007,07,11,15,38,35.60
2007,07,11,15,39,35.60
2007,07,11,15,40,35.60
2007,07,11,15,41,35.70
2007,07,11,15,42,35.70
2007,07,11,15,43,35.70
2007,07,11,15,44,35.70
2007,07,11,15,45,35.70
2007,07,11,15,46,35.70
2007,07,11,15,47,35.80
2007,07,11,15,48,35.80
2007,07,11,15,49,35.70
2007,07,11,15,50,35.70
2007,07,11,15,51,35.70
2007,07,11,15,52,35.70
2007,07,11,15,53,35.70
2007,07,11,15,54,35.60
2007,07,11,15,55,35.70
2007,07,11,15,56,35.60
2007,07,11,15,57,35.40
2007,07,11,15,58,35.40
2007,07,11,15,59,35.40
2007,07,11,16,00,35.30
2007,07,11,16,01,35.30
2007,07,11,16,02,35.30
2007,07,11,16,03,35.30
2007,07,11,16,04,35.30
2007,07,11,16,05,35.40
2007,07,11,16,06,35.40
2007,07,11,16,07,35.30
2007,07,11,16,08,35.30
2007,07,11,16,09,35.30
2007,07,11,16,10,35.30
2007,07,11,16,11,35.30
2007,07,11,16,12,35.40
2007,07,11,16,13,35.40
2007,07,11,16,14,35.50
2007,07,11,16,15,35.60
2007,07,11,16,16,35.60
2007,07,11,16,17,35.60
2007,07,11,16,18,35.60
2007,07,11,16,19,35.70
2007,07,11,16,20,35.80
2007,07,11,16,21,35.80
2007,07,11,16,22,35.70
2007,07,11,16,23,35.70
2007,07,11,16,24,35.80
2007,07,11,16,25,35.90
2007,07,11,16,26,35.90
2007,07,11,16,27,35.80
2007,07,11,16,28,35.70
2007,07,11,16,29,35.60
2007,07,11,16,30,35.70
2007,07,11,16,31,35.70
2007,07,11,16,32,35.70
2007,07,11,16,33,35.70
2007,07,11,16,34,35.80
2007,07,11,16,35,35.90
2007,07,11,16,36,35.80
2007,07,11,16,37,35.90
2007,07,11,16,38,35.90
2007,07,11,16,39,35.90
2007,07,11,16,40,35.90
2007,07,11,16,41,35.90
2007,07,11,16,42,35.90
2007,07,11,16,43,35.80
2007,07,11,16,44,35.70
2007,07,11,16,45,35.70
2007,07,11,16,46,35.70
2007,07,11,16,47,35.70
2007,07,11,16,48,35.60
2007,07,11,16,49,35.70
2007,07,11,16,50,35.70
2007,07,11,16,51,35.70
2007,07,11,16,52,35.70
2007,07,11,16,53,35.80
2007,07,11,16,54,35.90
2007,07,11,16,55,35.90
2007,07,11,16,56,35.90
2007,07,11,16,57,35.90
2007,07,11,16,58,35.90
2007,07,11,16,59,35.80
2007,07,11,17,00,35.70
2007,07,11,17,01,35.70
2007,07,11,17,02,35.70
2007,07,11,17,03,35.70
2007,07,11,17,04,35.70
2007,07,11,17,05,35.70
2007,07,11,17,06,35.80
2007,07,11,17,07,35.80
2007,07,11,17,08,35.80
2007,07,11,17,09,35.80
2007,07,11,17,10,35.90
2007,07,11,17,11,35.90
2007,07,11,17,12,35.80
2007,07,11,17,13,35.70
2007,07,11,17,14,35.60
2007,07,11,17,15,35.60
2007,07,11,17,16,35.50
2007,07,11,17,17,35.40
2007,07,11,17,18,35.40
2007,07,11,17,19,35.50